This is the latest recevied weather packets stored in our database for station/object DB0GMN-13. If no packets are shown the sender has not sent any weather packets the latest 10 day(s).
| Time | Temp. | Humidity | Pressure | Rain* | Wind** | Luminosity | Snow |
|---|---|---|---|---|---|---|---|
| 1777622773 | -1.11° C | 99% | 1028.1 hPa | 0 mm | - | 589 W/m² | - |
| 1777621566 | -1.11° C | 97% | 1028.1 hPa | 0 mm | - | 441 W/m² | - |
| 1777620360 | -1.11° C | 93% | 1028.1 hPa | 0 mm | - | 68 W/m² | - |
| 1777613774 | - | - | 1028.1 hPa | 0 mm | - | 54 W/m² | - |
| 1777607134 | -1.11° C | 93% | 1027.9 hPa | 0 mm | - | 8 W/m² | - |
| 1777604738 | - | - | 1027.9 hPa | 0 mm | - | 0 W/m² | - |
| 1777601154 | - | - | 1028.1 hPa | 0 mm | - | 0 W/m² | - |
| 1777595115 | - | - | 1027.9 hPa | 0 mm | - | 0 W/m² | - |
| 1777594592 | - | 99% | 1027.8 hPa | 0 mm | - | 0 W/m² | - |
| 1777593365 | - | 99% | 1027.8 hPa | 0 mm | - | 0 W/m² | - |
| 1777590346 | - | 99% | 1028 hPa | 0 mm | - | 0 W/m² | - |
| 1777589743 | - | 69% | 1028 hPa | 0 mm | - | 0 W/m² | - |
| 1777586722 | - | 99% | 1028 hPa | 0 mm | - | 0 W/m² | - |
| 1777578954 | -1.11° C | 99% | 1028.2 hPa | 0 mm | - | 0 W/m² | - |
| 1777572955 | -1.11° C | 98% | 1027.9 hPa | 0 mm | - | 20 W/m² | - |
| 1777571141 | -1.11° C | 93% | 1028.1 hPa | 0 mm | - | 49 W/m² | - |
| 1777569332 | -1.11° C | 96% | 1028.2 hPa | 0 mm | - | 97 W/m² | - |
| 1777568123 | -1.11° C | 97% | 1028.2 hPa | 0 mm | - | 139 W/m² | - |
| 1777564582 | -1.11° C | 97% | 1028.3 hPa | 0 mm | - | 288 W/m² | - |
| 1777563355 | -1.11° C | 96% | 1028.3 hPa | 0 mm | - | 334 W/m² | - |
| 1777560939 | -1.11° C | 95% | 1028.7 hPa | 0 mm | - | 461 W/m² | - |
| 1777558522 | -1.11° C | 96% | 1029 hPa | 0 mm | - | 594 W/m² | - |
| 1777557374 | -1.11° C | 95% | 1029.2 hPa | 0 mm | - | 580 W/m² | - |
| 1777556769 | -1.11° C | 97% | 1029.3 hPa | 0 mm | - | 600 W/m² | - |
| 1777554959 | -1.11° C | 93% | 1029.5 hPa | 0 mm | - | 732 W/m² | - |
* Rain latest hour (hover to see other rain measurements)
** Current wind speed in m/s (hover to see current wind gust speed)